TGL66PC EKCH-LFPG

Flight info

Callsign TGL66PC
Flight time 1h 33m
Altitude 32000
Route NEXEN T503 GIMRU DCT MICOS DCT NVO DCT IDOSA UN857 TOLVU/N0444F330 DCT RAPOR DCT VEDUS
Aircraft A320/M-SDE3FGHIRWY/LB1

Departure

Time 2026-05-06 15:21
Airport Copenhagen Kastrup Airport (EKCH)

Arrival

Time 2026-05-06 16:54
Airport Charles de Gaulle International Airport (LFPG)
Time Latitude Longitude Altitude Speed Heading
2026-05-06 14:27 55.62714 12.64459 24 ft 0 kts 91°
2026-05-06 15:02 55.62714 12.64436 21 ft 3 kts 80°
2026-05-06 15:02 55.62708 12.64402 22 ft 3 kts 59°
2026-05-06 15:03 55.62696 12.64374 22 ft 3 kts 42°
2026-05-06 15:03 55.62681 12.64352 24 ft 3 kts 32°
2026-05-06 15:03 55.62669 12.64340 23 ft 3 kts 28°
2026-05-06 15:03 55.62651 12.64323 26 ft 3 kts 28°
2026-05-06 15:04 55.62634 12.64305 26 ft 3 kts 47°
2026-05-06 15:04 55.62627 12.64284 26 ft 2 kts 91°
2026-05-06 15:04 55.62626 12.64238 23 ft 3 kts 82°
2026-05-06 15:04 55.62624 12.64214 24 ft 3 kts 78°
2026-05-06 15:05 55.62620 12.64179 24 ft 3 kts 82°
2026-05-06 15:05 55.62619 12.64145 27 ft 3 kts 111°
2026-05-06 15:05 55.62622 12.64134 26 ft 1 kts 123°
2026-05-06 15:09 55.62621 12.64136 23 ft 1 kts 123°
2026-05-06 15:09 55.62606 12.64176 23 ft 6 kts 123°
2026-05-06 15:09 55.62601 12.64190 23 ft 2 kts 123°
2026-05-06 15:09 55.62592 12.64215 24 ft 3 kts 122°
2026-05-06 15:10 55.62577 12.64255 24 ft 5 kts 123°
2026-05-06 15:10 55.62557 12.64312 23 ft 6 kts 123°
2026-05-06 15:10 55.62526 12.64396 22 ft 10 kts 123°
2026-05-06 15:10 55.62480 12.64516 21 ft 13 kts 122°
2026-05-06 15:11 55.62435 12.64650 23 ft 13 kts 122°
2026-05-06 15:11 55.62380 12.64790 23 ft 14 kts 123°
2026-05-06 15:11 55.62326 12.64939 24 ft 15 kts 123°
2026-05-06 15:11 55.62266 12.65104 23 ft 17 kts 123°
2026-05-06 15:12 55.62198 12.65168 24 ft 12 kts 206°
2026-05-06 15:12 55.62128 12.65089 24 ft 12 kts 213°
2026-05-06 15:12 55.62100 12.65056 23 ft 1 kts 214°
2026-05-06 15:12 55.62083 12.65036 22 ft 5 kts 214°
2026-05-06 15:13 55.62042 12.64987 21 ft 9 kts 213°
2026-05-06 15:13 55.61983 12.64919 20 ft 12 kts 212°
2026-05-06 15:13 55.61897 12.64823 17 ft 16 kts 212°
2026-05-06 15:13 55.61812 12.64725 20 ft 13 kts 214°
2026-05-06 15:14 55.61736 12.64634 19 ft 14 kts 214°
2026-05-06 15:14 55.61652 12.64538 19 ft 14 kts 211°
2026-05-06 15:14 55.61563 12.64437 19 ft 15 kts 214°
2026-05-06 15:14 55.61476 12.64338 20 ft 15 kts 212°
2026-05-06 15:15 55.61385 12.64233 17 ft 16 kts 213°
2026-05-06 15:15 55.61290 12.64124 18 ft 16 kts 213°
2026-05-06 15:15 55.61194 12.64013 17 ft 16 kts 213°
2026-05-06 15:15 55.61105 12.63909 18 ft 16 kts 213°
2026-05-06 15:16 55.61022 12.63814 20 ft 11 kts 213°
2026-05-06 15:16 55.60969 12.63753 21 ft 7 kts 213°
2026-05-06 15:16 55.60930 12.63710 21 ft 6 kts 213°
2026-05-06 15:16 55.60883 12.63656 22 ft 10 kts 213°
2026-05-06 15:17 55.60822 12.63585 22 ft 9 kts 213°
2026-05-06 15:17 55.60771 12.63525 22 ft 9 kts 213°
2026-05-06 15:17 55.60719 12.63466 19 ft 9 kts 212°
2026-05-06 15:17 55.60675 12.63414 20 ft 6 kts 214°
2026-05-06 15:18 55.60637 12.63365 20 ft 6 kts 218°
2026-05-06 15:18 55.60594 12.63305 21 ft 10 kts 218°
2026-05-06 15:18 55.60537 12.63222 21 ft 9 kts 206°
2026-05-06 15:18 55.60489 12.63224 24 ft 6 kts 154°
2026-05-06 15:19 55.60454 12.63287 24 ft 8 kts 130°
2026-05-06 15:19 55.60420 12.63359 27 ft 7 kts 130°
2026-05-06 15:19 55.60395 12.63422 27 ft 6 kts 103°
2026-05-06 15:19 55.60418 12.63477 30 ft 0 kts 40°
2026-05-06 15:20 55.60501 12.63606 25 ft 51 kts 41°
2026-05-06 15:20 55.60942 12.64284 24 ft 114 kts 41°
2026-05-06 15:20 55.61669 12.65406 19 ft 161 kts 41°
2026-05-06 15:21 55.62537 12.66828 418 ft 173 kts 44°
2026-05-06 15:21 55.63456 12.68230 1196 ft 175 kts 40°
2026-05-06 15:21 55.64385 12.69606 1968 ft 173 kts 46°
2026-05-06 15:21 55.65298 12.71020 2509 ft 182 kts 45°
2026-05-06 15:22 55.66305 12.72549 2770 ft 204 kts 44°
2026-05-06 15:22 55.67454 12.74275 3067 ft 229 kts 43°
2026-05-06 15:22 55.68713 12.76224 3499 ft 249 kts 50°
2026-05-06 15:22 55.69629 12.78828 4313 ft 251 kts 71°
2026-05-06 15:23 55.69914 12.81888 5155 ft 256 kts 92°
2026-05-06 15:23 55.69474 12.84962 5987 ft 263 kts 114°
2026-05-06 15:23 55.68336 12.87530 6802 ft 271 kts 140°
2026-05-06 15:23 55.66658 12.89118 7582 ft 279 kts 158°
2026-05-06 15:24 55.64819 12.90296 8401 ft 282 kts 160°
2026-05-06 15:24 55.62903 12.91136 9228 ft 286 kts 175°
2026-05-06 15:24 55.60909 12.90986 10045 ft 289 kts 192°
2026-05-06 15:24 55.58974 12.89843 10357 ft 308 kts 209°
2026-05-06 15:25 55.57199 12.87510 10566 ft 330 kts 226°
2026-05-06 15:25 55.55578 12.84515 11039 ft 340 kts 227°
2026-05-06 15:25 55.53934 12.81492 11751 ft 343 kts 227°
2026-05-06 15:25 55.52266 12.78449 12479 ft 346 kts 227°
2026-05-06 15:26 55.50607 12.75354 13192 ft 348 kts 230°
2026-05-06 15:26 55.49006 12.72115 13879 ft 351 kts 232°
2026-05-06 15:26 55.47436 12.68790 14502 ft 354 kts 232°
2026-05-06 15:26 55.45873 12.65422 15154 ft 356 kts 232°
2026-05-06 15:27 55.44295 12.62024 15755 ft 360 kts 231°
2026-05-06 15:27 55.42713 12.58647 16313 ft 364 kts 232°
2026-05-06 15:27 55.41086 12.55212 16930 ft 366 kts 231°
2026-05-06 15:27 55.39441 12.51774 17547 ft 368 kts 231°
2026-05-06 15:28 55.37773 12.48311 18088 ft 372 kts 230°
2026-05-06 15:28 55.36085 12.44813 18564 ft 376 kts 231°
2026-05-06 15:28 55.34390 12.41297 19091 ft 378 kts 231°
2026-05-06 15:28 55.32683 12.37763 19615 ft 380 kts 230°
2026-05-06 15:29 55.30968 12.34220 20115 ft 382 kts 230°
2026-05-06 15:29 55.29243 12.30653 20599 ft 384 kts 231°
2026-05-06 15:29 55.27510 12.27074 21113 ft 386 kts 231°
2026-05-06 15:29 55.25767 12.23475 21617 ft 388 kts 231°
2026-05-06 15:30 55.24017 12.19866 22111 ft 389 kts 230°
2026-05-06 15:30 55.22255 12.16237 22626 ft 390 kts 230°
2026-05-06 15:30 55.20433 12.12692 23095 ft 393 kts 225°
2026-05-06 15:30 55.18305 12.09669 23534 ft 396 kts 218°
2026-05-06 15:31 55.16068 12.06814 23927 ft 398 kts 218°
2026-05-06 15:31 55.13823 12.03947 24302 ft 400 kts 217°
2026-05-06 15:31 55.11567 12.01069 24669 ft 402 kts 217°
2026-05-06 15:32 55.07062 11.95329 25371 ft 405 kts 217°
2026-05-06 15:32 55.04777 11.92422 25723 ft 407 kts 217°
2026-05-06 15:32 55.02476 11.89500 26073 ft 409 kts 217°
2026-05-06 15:32 55.00167 11.86571 26414 ft 411 kts 217°
2026-05-06 15:33 54.97847 11.83626 26763 ft 413 kts 217°
2026-05-06 15:33 54.95516 11.80672 27094 ft 415 kts 216°
2026-05-06 15:33 54.93173 11.77713 27376 ft 418 kts 216°
2026-05-06 15:33 54.90807 11.74731 27662 ft 421 kts 216°
2026-05-06 15:34 54.88422 11.71737 27959 ft 423 kts 216°
2026-05-06 15:34 54.86059 11.68773 28258 ft 425 kts 216°
2026-05-06 15:34 54.83654 11.65756 28549 ft 427 kts 216°
2026-05-06 15:34 54.81238 11.62730 28835 ft 429 kts 215°
2026-05-06 15:35 54.78812 11.59697 29121 ft 430 kts 215°
2026-05-06 15:35 54.76374 11.56654 29413 ft 432 kts 215°
2026-05-06 15:35 54.73928 11.53607 29688 ft 434 kts 215°
2026-05-06 15:35 54.71511 11.50596 30005 ft 434 kts 214°
2026-05-06 15:36 54.69024 11.47503 30278 ft 435 kts 214°
2026-05-06 15:36 54.66567 11.44447 30592 ft 434 kts 215°
2026-05-06 15:36 54.64152 11.41440 30938 ft 433 kts 215°
2026-05-06 15:36 54.61712 11.38410 31289 ft 431 kts 215°
2026-05-06 15:37 54.59274 11.35397 31667 ft 430 kts 215°
2026-05-06 15:37 54.56846 11.32406 31882 ft 427 kts 215°
2026-05-06 15:37 54.51999 11.26472 31908 ft 425 kts 214°
2026-05-06 15:38 54.47172 11.20605 31908 ft 426 kts 214°
2026-05-06 15:38 54.42340 11.14752 31905 ft 428 kts 214°
2026-05-06 15:39 54.37438 11.08824 31916 ft 428 kts 214°
2026-05-06 15:39 54.32592 11.02989 31918 ft 428 kts 214°
2026-05-06 15:40 54.27753 10.96993 31905 ft 428 kts 217°
2026-05-06 15:40 54.23144 10.90513 31905 ft 431 kts 219°
2026-05-06 15:41 54.18551 10.83907 31925 ft 432 kts 219°
2026-05-06 15:41 54.13906 10.77417 31902 ft 431 kts 218°
2026-05-06 15:42 54.09251 10.71046 31897 ft 432 kts 218°
2026-05-06 15:42 54.04561 10.64646 31893 ft 432 kts 218°
2026-05-06 15:43 53.99868 10.58241 31903 ft 433 kts 218°
2026-05-06 15:43 53.95189 10.51863 31895 ft 432 kts 218°
2026-05-06 15:44 53.90489 10.45474 31894 ft 432 kts 218°
2026-05-06 15:44 53.85788 10.39101 31894 ft 432 kts 218°
2026-05-06 15:45 53.81118 10.32786 31896 ft 432 kts 218°
2026-05-06 15:45 53.76397 10.26425 31888 ft 435 kts 218°
2026-05-06 15:46 53.71651 10.20057 31888 ft 436 kts 218°
2026-05-06 15:46 53.66893 10.13700 31895 ft 436 kts 218°
2026-05-06 15:47 53.62136 10.07354 31888 ft 436 kts 218°
2026-05-06 15:47 53.57374 10.01011 31887 ft 436 kts 218°
2026-05-06 15:48 53.52632 9.94718 31899 ft 437 kts 218°
2026-05-06 15:48 53.47835 9.88389 31891 ft 438 kts 217°
2026-05-06 15:49 53.43040 9.82055 31874 ft 438 kts 218°
2026-05-06 15:49 53.38253 9.75741 31876 ft 438 kts 217°
2026-05-06 15:50 53.33453 9.69463 31882 ft 438 kts 217°
2026-05-06 15:50 53.28651 9.63195 31871 ft 438 kts 218°
2026-05-06 15:51 53.23851 9.56932 31870 ft 437 kts 218°
2026-05-06 15:51 53.19076 9.50720 31871 ft 438 kts 217°
2026-05-06 15:52 53.14276 9.44491 31875 ft 438 kts 217°
2026-05-06 15:52 53.09464 9.38274 31879 ft 437 kts 217°
2026-05-06 15:53 53.05471 9.33120 31868 ft 438 kts 217°
2026-05-06 15:53 53.00650 9.26927 31870 ft 437 kts 217°
2026-05-06 15:54 52.95830 9.20758 31870 ft 438 kts 217°
2026-05-06 15:54 52.91012 9.14595 31880 ft 437 kts 217°
2026-05-06 15:55 52.86177 9.08434 32272 ft 437 kts 218°
2026-05-06 15:55 52.83798 9.05409 32611 ft 436 kts 218°
2026-05-06 15:55 52.81388 9.02350 32842 ft 436 kts 218°
2026-05-06 15:56 52.76595 8.96296 32869 ft 432 kts 218°
2026-05-06 15:56 52.71817 8.90264 32859 ft 432 kts 218°
2026-05-06 15:57 52.67050 8.84252 32861 ft 431 kts 218°
2026-05-06 15:57 52.62294 8.78283 32862 ft 429 kts 218°
2026-05-06 15:58 52.57545 8.72332 32853 ft 429 kts 218°
2026-05-06 15:58 52.52833 8.66429 32851 ft 428 kts 218°
2026-05-06 15:59 52.48093 8.60522 32849 ft 428 kts 217°
2026-05-06 15:59 52.43336 8.54623 32839 ft 428 kts 218°
2026-05-06 16:00 52.38593 8.48731 32851 ft 427 kts 218°
2026-05-06 16:00 52.33845 8.42862 32850 ft 427 kts 217°
2026-05-06 16:01 52.29119 8.37045 32837 ft 428 kts 217°
2026-05-06 16:01 52.24357 8.31199 32843 ft 428 kts 217°
2026-05-06 16:02 52.19589 8.25367 32841 ft 428 kts 217°
2026-05-06 16:02 52.14855 8.19578 32847 ft 428 kts 217°
2026-05-06 16:03 52.10089 8.13761 32855 ft 428 kts 217°
2026-05-06 16:03 52.05314 8.07959 32860 ft 428 kts 217°
2026-05-06 16:04 52.00531 8.02165 32832 ft 428 kts 217°
2026-05-06 16:04 51.95758 7.96396 32833 ft 428 kts 217°
2026-05-06 16:05 51.91014 7.90679 32835 ft 428 kts 217°
2026-05-06 16:05 51.86227 7.84920 32836 ft 428 kts 217°
2026-05-06 16:06 51.81447 7.79186 32850 ft 428 kts 216°
2026-05-06 16:06 51.76641 7.73448 32838 ft 429 kts 216°
2026-05-06 16:07 51.71838 7.67719 32844 ft 429 kts 216°
2026-05-06 16:07 51.67064 7.62040 32850 ft 429 kts 216°
2026-05-06 16:08 51.62248 7.56335 32853 ft 429 kts 216°
2026-05-06 16:08 51.57441 7.50645 32855 ft 429 kts 216°
2026-05-06 16:09 51.52633 7.44967 32848 ft 429 kts 216°
2026-05-06 16:09 51.47820 7.39299 32849 ft 428 kts 216°
2026-05-06 16:10 51.43031 7.33680 32846 ft 428 kts 216°
2026-05-06 16:10 51.38209 7.28046 32847 ft 428 kts 216°
2026-05-06 16:11 51.33395 7.22431 32835 ft 428 kts 216°
2026-05-06 16:11 51.28576 7.16824 32843 ft 428 kts 216°
2026-05-06 16:12 51.23774 7.11248 32853 ft 429 kts 216°
2026-05-06 16:12 51.18947 7.05656 32849 ft 429 kts 216°
2026-05-06 16:13 51.14121 7.00070 32851 ft 429 kts 216°
2026-05-06 16:13 51.09276 6.94487 32839 ft 430 kts 216°
2026-05-06 16:14 51.04419 6.88912 32841 ft 430 kts 216°
2026-05-06 16:14 50.99559 6.83343 32845 ft 431 kts 216°
2026-05-06 16:15 50.94680 6.77771 32850 ft 431 kts 216°
2026-05-06 16:15 50.89833 6.72259 32855 ft 431 kts 216°
2026-05-06 16:16 50.84956 6.66713 32854 ft 431 kts 216°
2026-05-06 16:16 50.79820 6.61883 32852 ft 431 kts 205°
2026-05-06 16:17 50.74368 6.57950 32851 ft 431 kts 205°
2026-05-06 16:17 50.68924 6.53989 32848 ft 431 kts 205°
2026-05-06 16:18 50.63502 6.50070 32846 ft 431 kts 205°
2026-05-06 16:18 50.58038 6.46136 32842 ft 431 kts 205°
2026-05-06 16:19 50.52575 6.42209 32842 ft 431 kts 205°
2026-05-06 16:19 50.47154 6.38323 32830 ft 431 kts 205°
2026-05-06 16:20 50.41690 6.34422 32834 ft 431 kts 205°
2026-05-06 16:20 50.36226 6.30526 32836 ft 431 kts 205°
2026-05-06 16:21 50.30763 6.26643 32855 ft 431 kts 205°
2026-05-06 16:21 50.25297 6.22769 32854 ft 431 kts 205°
2026-05-06 16:22 50.19840 6.18905 32855 ft 430 kts 205°
2026-05-06 16:22 50.14393 6.15054 32858 ft 430 kts 205°
2026-05-06 16:23 50.08935 6.11219 32858 ft 430 kts 204°
2026-05-06 16:23 50.03507 6.07411 32858 ft 430 kts 204°
2026-05-06 16:24 49.98057 6.03594 32863 ft 429 kts 204°
2026-05-06 16:24 49.92617 5.99789 32873 ft 428 kts 204°
2026-05-06 16:25 49.87181 5.96002 32864 ft 428 kts 204°
2026-05-06 16:25 49.81749 5.92229 32850 ft 428 kts 204°
2026-05-06 16:26 49.76631 5.87602 32864 ft 428 kts 220°
2026-05-06 16:26 49.72880 5.80480 32842 ft 431 kts 240°
2026-05-06 16:27 49.70687 5.71887 32840 ft 433 kts 249°
2026-05-06 16:27 49.68645 5.63113 32840 ft 433 kts 248°
2026-05-06 16:28 49.66577 5.54349 32855 ft 434 kts 248°
2026-05-06 16:28 49.64528 5.45647 32851 ft 434 kts 248°
2026-05-06 16:29 49.62465 5.36888 32860 ft 435 kts 249°
2026-05-06 16:29 49.60499 5.28053 32853 ft 436 kts 251°
2026-05-06 16:30 49.59319 5.20511 32864 ft 438 kts 263°
2026-05-06 16:30 49.59291 5.09452 32714 ft 448 kts 269°
2026-05-06 16:31 49.59330 5.04652 31760 ft 453 kts 269°
2026-05-06 16:31 49.59357 4.99828 30784 ft 450 kts 269°
2026-05-06 16:31 49.59380 4.95000 30094 ft 447 kts 269°
2026-05-06 16:31 49.59405 4.90207 29433 ft 442 kts 270°
2026-05-06 16:32 49.59432 4.85553 28814 ft 436 kts 269°
2026-05-06 16:32 49.59461 4.80900 28206 ft 430 kts 269°
2026-05-06 16:32 49.59489 4.76313 27614 ft 425 kts 269°
2026-05-06 16:32 49.59516 4.71786 27115 ft 419 kts 269°
2026-05-06 16:33 49.59537 4.67318 26599 ft 415 kts 269°
2026-05-06 16:33 49.59558 4.62896 26096 ft 411 kts 269°
2026-05-06 16:33 49.59576 4.58514 25591 ft 407 kts 269°
2026-05-06 16:34 49.59601 4.49871 24597 ft 398 kts 269°
2026-05-06 16:34 49.59610 4.45611 24111 ft 397 kts 269°
2026-05-06 16:34 49.59620 4.41431 23630 ft 394 kts 269°
2026-05-06 16:34 49.59630 4.37226 23096 ft 391 kts 269°
2026-05-06 16:35 49.59642 4.33052 22612 ft 388 kts 269°
2026-05-06 16:35 49.59650 4.28910 22137 ft 385 kts 269°
2026-05-06 16:35 49.59655 4.24794 21662 ft 382 kts 269°
2026-05-06 16:35 49.59657 4.20711 21193 ft 379 kts 269°
2026-05-06 16:36 49.59656 4.16642 20725 ft 377 kts 269°
2026-05-06 16:36 49.59651 4.12615 20266 ft 374 kts 268°
2026-05-06 16:36 49.59377 4.08654 19805 ft 371 kts 258°
2026-05-06 16:36 49.58629 4.04868 19349 ft 368 kts 247°
2026-05-06 16:37 49.57435 4.01393 18888 ft 366 kts 237°
2026-05-06 16:37 49.56039 3.98115 18438 ft 364 kts 237°
2026-05-06 16:37 49.54659 3.94851 17958 ft 363 kts 238°
2026-05-06 16:37 49.53292 3.91602 17503 ft 360 kts 238°
2026-05-06 16:38 49.51933 3.88369 17066 ft 359 kts 238°
2026-05-06 16:38 49.50593 3.85199 16617 ft 357 kts 238°
2026-05-06 16:38 49.49239 3.82011 16177 ft 355 kts 238°
2026-05-06 16:38 49.47948 3.78784 15734 ft 354 kts 244°
2026-05-06 16:39 49.47043 3.75286 15305 ft 351 kts 255°
2026-05-06 16:39 49.46441 3.71661 14865 ft 350 kts 256°
2026-05-06 16:39 49.45837 3.68044 14443 ft 348 kts 256°
2026-05-06 16:39 49.45229 3.64447 14014 ft 347 kts 256°
2026-05-06 16:40 49.44620 3.60853 13570 ft 347 kts 256°
2026-05-06 16:40 49.44016 3.57303 13329 ft 337 kts 256°
2026-05-06 16:40 49.43432 3.53882 13198 ft 325 kts 256°
2026-05-06 16:40 49.42869 3.50576 13061 ft 315 kts 255°
2026-05-06 16:41 49.42125 3.47475 12914 ft 305 kts 242°
2026-05-06 16:41 49.41371 3.45673 12752 ft 302 kts 231°
2026-05-06 16:41 49.39881 3.43440 12530 ft 299 kts 217°
2026-05-06 16:41 49.38102 3.41799 12202 ft 298 kts 210°
2026-05-06 16:42 49.36296 3.40252 11877 ft 296 kts 210°
2026-05-06 16:42 49.34502 3.38706 11575 ft 295 kts 211°
2026-05-06 16:42 49.32709 3.37157 11313 ft 294 kts 210°
2026-05-06 16:42 49.30928 3.35615 10993 ft 293 kts 211°
2026-05-06 16:43 49.29157 3.34082 10674 ft 292 kts 211°
2026-05-06 16:43 49.27404 3.32529 10351 ft 290 kts 215°
2026-05-06 16:43 49.25803 3.30734 10048 ft 288 kts 218°
2026-05-06 16:43 49.24200 3.28907 9722 ft 286 kts 218°
2026-05-06 16:44 49.22606 3.27093 9380 ft 285 kts 219°
2026-05-06 16:44 49.21021 3.25293 9112 ft 281 kts 219°
2026-05-06 16:44 49.19498 3.23570 8977 ft 262 kts 219°
2026-05-06 16:44 49.18085 3.21974 8817 ft 245 kts 218°
2026-05-06 16:45 49.16732 3.20447 8546 ft 239 kts 218°
2026-05-06 16:45 49.15390 3.18923 8093 ft 244 kts 218°
2026-05-06 16:45 49.14020 3.17365 7732 ft 245 kts 219°
2026-05-06 16:45 49.12659 3.15821 7450 ft 242 kts 218°
2026-05-06 16:46 49.11365 3.14210 7180 ft 238 kts 229°
2026-05-06 16:46 49.10313 3.12300 6921 ft 234 kts 233°
2026-05-06 16:46 49.09283 3.10378 6673 ft 233 kts 233°
2026-05-06 16:46 49.08257 3.08475 6409 ft 231 kts 233°
2026-05-06 16:47 49.07240 3.06593 6151 ft 229 kts 233°
2026-05-06 16:47 49.06230 3.04729 5890 ft 227 kts 233°
2026-05-06 16:47 49.05227 3.02875 5646 ft 226 kts 233°
2026-05-06 16:47 49.04231 3.01037 5396 ft 223 kts 233°
2026-05-06 16:48 49.03251 2.99226 5157 ft 220 kts 233°
2026-05-06 16:48 49.02296 2.97457 4923 ft 217 kts 233°
2026-05-06 16:48 49.01487 2.95559 4688 ft 211 kts 251°
2026-05-06 16:48 49.01202 2.93424 4454 ft 203 kts 269°
2026-05-06 16:49 49.01102 2.91303 4236 ft 199 kts 268°
2026-05-06 16:49 49.00991 2.89260 4102 ft 189 kts 268°
2026-05-06 16:49 49.00887 2.87278 3864 ft 186 kts 270°
2026-05-06 16:49 49.00786 2.85317 3615 ft 185 kts 269°
2026-05-06 16:50 49.00687 2.83364 3369 ft 184 kts 269°
2026-05-06 16:50 49.00588 2.81419 3125 ft 185 kts 268°
2026-05-06 16:50 49.00489 2.79495 2872 ft 175 kts 269°
2026-05-06 16:50 49.00397 2.77754 2657 ft 155 kts 269°
2026-05-06 16:51 49.00317 2.76200 2447 ft 143 kts 270°
2026-05-06 16:51 49.00241 2.74708 2257 ft 140 kts 270°
2026-05-06 16:51 49.00166 2.73238 2071 ft 138 kts 271°
2026-05-06 16:51 49.00091 2.71788 1885 ft 137 kts 270°
2026-05-06 16:52 49.00016 2.70340 1695 ft 138 kts 270°
2026-05-06 16:52 48.99941 2.68886 1507 ft 138 kts 270°
2026-05-06 16:52 48.99865 2.67437 1312 ft 137 kts 270°
2026-05-06 16:52 48.99789 2.65987 1118 ft 137 kts 269°
2026-05-06 16:53 48.99713 2.64539 931 ft 137 kts 270°
2026-05-06 16:53 48.99637 2.63102 740 ft 136 kts 270°
2026-05-06 16:53 48.99563 2.61674 571 ft 138 kts 271°
2026-05-06 16:53 48.99485 2.60216 394 ft 135 kts 271°
2026-05-06 16:54 48.99424 2.58855 354 ft 107 kts 265°
2026-05-06 16:54 48.99377 2.58170 353 ft 37 kts 266°
2026-05-06 16:54 48.99359 2.57789 353 ft 35 kts 265°
2026-05-06 16:54 48.99346 2.57463 351 ft 16 kts 279°
2026-05-06 16:55 48.99381 2.57295 355 ft 17 kts 290°
2026-05-06 16:55 48.99417 2.57113 362 ft 19 kts 285°
2026-05-06 16:55 48.99449 2.56936 354 ft 15 kts 285°
2026-05-06 16:55 48.99459 2.56880 356 ft 0 kts 284°
2026-05-06 17:00 48.99462 2.56860 358 ft 7 kts 285°
2026-05-06 17:00 48.99474 2.56780 360 ft 8 kts 277°
2026-05-06 17:01 48.99482 2.56684 354 ft 10 kts 292°
2026-05-06 17:01 48.99541 2.56633 357 ft 11 kts 352°
2026-05-06 17:01 48.99619 2.56623 363 ft 11 kts 355°
2026-05-06 17:01 48.99698 2.56614 354 ft 13 kts 355°
2026-05-06 17:02 48.99792 2.56607 357 ft 14 kts 10°
2026-05-06 17:02 48.99837 2.56729 354 ft 15 kts 85°
2026-05-06 17:02 48.99846 2.56897 361 ft 17 kts 85°
2026-05-06 17:02 48.99884 2.56998 356 ft 10 kts 24°
2026-05-06 17:03 48.99944 2.57059 354 ft 11 kts 66°
2026-05-06 17:03 48.99950 2.57186 358 ft 13 kts 86°
2026-05-06 17:03 48.99992 2.57279 358 ft 9 kts 15°
2026-05-06 17:03 49.00040 2.57336 354 ft 10 kts 78°
2026-05-06 17:04 49.00046 2.57453 362 ft 12 kts 85°
2026-05-06 17:04 49.00053 2.57585 354 ft 13 kts 85°
2026-05-06 17:04 49.00061 2.57733 362 ft 15 kts 85°
2026-05-06 17:04 49.00069 2.57897 354 ft 16 kts 86°
2026-05-06 17:05 49.00079 2.58061 354 ft 15 kts 85°
2026-05-06 17:05 49.00087 2.58223 359 ft 15 kts 85°
2026-05-06 17:05 49.00145 2.58311 354 ft 14 kts 354°
2026-05-06 17:05 49.00245 2.58299 354 ft 15 kts 355°
2026-05-06 17:06 49.00307 2.58292 354 ft 3 kts
2026-05-06 17:06 49.00324 2.58323 356 ft 5 kts 65°
2026-05-06 17:06 49.00326 2.58372 354 ft 4 kts 89°
2026-05-06 17:06 49.00327 2.58391 354 ft 1 kts 86°
2026-05-06 17:07 49.00328 2.58399 343 ft 1 kts 86°
2026-05-06 17:07 49.00328 2.58403 340 ft 0 kts 86°